Notices

What's New in latest Release from April 7th, 2021:

- Updated Glossary, including Speed of Maximum Gust, and Total Hourly Precipitation

- Updated national and regional climate services offices contacts and prices information

- Addition of station inventory lists for 1981-2010, 1971-2000, and 1961-1990 Normals.

If you haven't already, please take our survey and provide feedback about our website: https://eccc.sondage-survey.ca/f/LanguageSelection.aspx?s=442ca660-fcf1-47c0-95a9-59707d6fd709

Hourly Data Report for November 04, 2019

PINAWA
MANITOBA
Current Station Operator: ECCC - MSC

50°10'38.020" N
96°03'53.000" W
268.00 m
503B1ER
71448
WEA

Download Data

Hourly Data (November 2019)
Hourly Data Report for November 4, 2019
TIME
LST
Temp Definition
°C
Dew Point Definition
°C
Rel Hum Definition
%
Precip. Amount Definition
mm

Wind Dir Definition
10's deg

Wind Spd Definition
km/h
Visibility Definition
km
Stn Press Definition
kPa
Hmdx Definition


Wind Chill Definition


Weather Definition


00:00 -2.4 LegendMM LegendMM 0.0 28 6   97.90   -5 LegendNANA
01:00 -2.0 LegendMM LegendMM 0.0 28 7   97.90   -5 LegendNANA
02:00 -1.8 LegendMM LegendMM 0.0 29 10   97.91   -5 LegendNANA
03:00 -1.7 LegendMM LegendMM 0.0 29 7   97.93   -4 LegendNANA
04:00 -2.0 LegendMM LegendMM 0.0 28 9   97.95   -5 LegendNANA
05:00 -2.2 LegendMM LegendMM 0.0 29 11   97.96   -6 LegendNANA
06:00 -1.9 LegendMM LegendMM 0.0 31 14   98.00   -7 LegendNANA
07:00 -3.4 LegendMM LegendMM 1.2 35 15   98.08   -9 LegendNANA
08:00 -4.2 LegendMM LegendMM 0.5 35 14   98.18   -9 LegendNANA
09:00 -5.1 LegendMM LegendMM 1.4 34 11   98.27   -10 LegendNANA
10:00 -4.6 LegendMM LegendMM 0.0 33 18   98.30   -11 LegendNANA
11:00 -4.4 LegendMM LegendMM 0.0 31 26   98.34   -12 LegendNANA
12:00 -4.2 LegendMM LegendMM 0.0 31 25   98.34   -11 LegendNANA
13:00 -4.7 LegendMM LegendMM 0.0 31 24   98.36   -12 LegendNANA
14:00 -4.9 LegendMM LegendMM 0.0 31 18   98.38   -11 LegendNANA
15:00 -4.9 LegendMM LegendMM 0.0 31 25   98.43   -12 LegendNANA
16:00 -6.4 LegendMM LegendMM 0.0 32 21   98.52   -13 LegendNANA
17:00 -7.0 LegendMM LegendMM 0.0 31 20   98.60   -14 LegendNANA
18:00 -7.7 LegendMM LegendMM 0.0 30 23   98.68   -15 LegendNANA
19:00 -7.6 LegendMM LegendMM 0.0 30 16   98.71   -14 LegendNANA
20:00 -7.4 LegendMM LegendMM 0.0 31 19   98.71   -14 LegendNANA
21:00 -7.6 LegendMM LegendMM 0.0 30 18   98.73   -14 LegendNANA
22:00 -7.7 LegendMM LegendMM 0.0 30 15   98.78   -14 LegendNANA
23:00 -7.8 LegendMM LegendMM 0.0 29 15   98.81   -14 LegendNANA

Notes on Data Quality.

Legend

  • E = Estimated
  • M = Missing
  • NA = Not Available*
  • [empty] = Indicates an unobserved value
Date modified: